timestamp,surface_pressure_avg,surface_temp_avg,battery_voltage,lat,long
2023-07-18 00:09:00+00:00,353.9396,18.4,12.81,47.84626,-54.09684
2023-07-18 00:19:00+00:00,354.3345,18.41,12.73,47.84626,-54.09684
2023-07-18 00:29:00+00:00,352.86800000000005,18.43,12.73,47.84626,-54.09684
2023-07-18 00:39:00+00:00,352.4979,18.41,12.73,47.84626,-54.09684
2023-07-18 00:49:00+00:00,353.6096,18.44,12.73,47.84626,-54.09684
2023-07-18 00:59:00+00:00,351.1213,18.43,12.73,47.84626,-54.09684
2023-07-18 01:09:00+00:00,346.5779,18.43,12.73,47.84626,-54.09684
2023-07-18 01:19:00+00:00,345.0079,18.42,12.73,47.84626,-54.09684
2023-07-18 01:29:00+00:00,343.1246,18.42,12.73,47.84626,-54.09684
2023-07-18 01:39:00+00:00,337.9047,18.44,12.73,47.84626,-54.09684
2023-07-18 01:49:00+00:00,334.0446,18.45,12.73,47.84626,-54.09684
2023-07-18 01:59:00+00:00,332.3413,18.47,12.73,47.84626,-54.09684
2023-07-18 02:09:00+00:00,326.8846,18.49,12.73,47.84626,-54.09684
2023-07-18 02:19:00+00:00,319.278,18.5,12.73,47.84626,-54.09684
2023-07-18 02:29:00+00:00,313.0914,18.5,12.73,47.84626,-54.09684
2023-07-18 02:39:00+00:00,307.498,18.5,12.73,47.84626,-54.09684
2023-07-18 02:49:00+00:00,297.1263,18.5,12.73,47.84626,-54.09684
2023-07-18 02:59:00+00:00,287.5031,18.5,12.73,47.84626,-54.09684
2023-07-18 03:09:00+00:00,279.0697,18.5,12.73,47.84626,-54.09684
2023-07-18 03:19:00+00:00,270.7881,18.5,12.65,47.84626,-54.09684
2023-07-18 03:29:00+00:00,259.9048,18.5,12.65,47.84626,-54.09684
2023-07-18 03:39:00+00:00,252.7781,18.53,12.65,47.84626,-54.09684
2023-07-18 03:49:00+00:00,245.7781,18.6,12.65,47.84626,-54.09684
2023-07-18 03:59:00+00:00,237.2231,18.69,12.65,47.84626,-54.09684
2023-07-18 04:09:00+00:00,229.6264,18.7,12.65,47.84626,-54.09684
2023-07-18 04:19:00+00:00,225.0581,18.75,12.65,47.84626,-54.09684
2023-07-18 04:29:00+00:00,218.7231,18.8,12.65,47.84626,-54.09684
2023-07-18 04:39:00+00:00,212.5448,18.9,12.65,47.84626,-54.09684
2023-07-18 04:49:00+00:00,209.1297,19.0,12.65,47.84626,-54.09684
2023-07-18 04:59:00+00:00,204.9464,19.1,12.65,47.84626,-54.09684
2023-07-18 05:09:00+00:00,199.0131,19.1,12.65,47.84626,-54.09684
2023-07-18 05:19:00+00:00,197.6365,19.19,12.65,47.84626,-54.09684
2023-07-18 05:29:00+00:00,197.3598,19.2,12.65,47.84626,-54.09684
2023-07-18 05:39:00+00:00,195.5231,19.2,12.65,47.84626,-54.09684
2023-07-18 05:49:00+00:00,195.8398,19.22,12.65,47.84626,-54.09684
2023-07-18 05:59:00+00:00,198.9081,19.2,12.65,47.84626,-54.09684
2023-07-18 06:09:00+00:00,199.9931,19.19,12.65,47.84626,-54.09684
2023-07-18 06:19:00+00:00,199.0998,19.16,12.57,47.84626,-54.09684
2023-07-18 06:29:00+00:00,199.7647,19.2,12.57,47.84626,-54.09684
2023-07-18 06:39:00+00:00,203.4665,19.2,12.57,47.84626,-54.09684
2023-07-18 06:49:00+00:00,205.5998,19.13,12.57,47.84626,-54.09684
2023-07-18 06:59:00+00:00,206.2098,19.1,12.57,47.84626,-54.09684
2023-07-18 07:09:00+00:00,210.1598,19.1,12.57,47.84626,-54.09684
2023-07-18 07:19:00+00:00,214.8331,19.1,12.57,47.84626,-54.09684
2023-07-18 07:29:00+00:00,215.9164,19.1,12.57,47.84626,-54.09684
2023-07-18 07:39:00+00:00,218.3064,19.1,12.57,47.84626,-54.09684
2023-07-18 07:49:00+00:00,221.8064,19.1,12.57,47.84626,-54.09684
2023-07-18 07:59:00+00:00,223.9932,19.08,12.57,47.84626,-54.09684
2023-07-18 08:09:00+00:00,226.2781,19.06,12.57,47.84626,-54.09684
2023-07-18 08:19:00+00:00,231.2531,19.03,12.57,47.84626,-54.09684
2023-07-18 08:29:00+00:00,233.0781,19.0,12.57,47.84626,-54.09684
2023-07-18 08:39:00+00:00,234.8515,19.0,12.57,47.84626,-54.09684
2023-07-18 08:49:00+00:00,239.7864,19.0,12.57,47.84626,-54.09684
2023-07-18 08:59:00+00:00,244.8531,19.0,12.57,47.84626,-54.09684
2023-07-18 09:09:00+00:00,247.7714,19.0,12.57,47.84626,-54.09684
2023-07-18 09:19:00+00:00,251.2047,18.9,12.57,47.84626,-54.09684
2023-07-18 09:29:00+00:00,257.4148,18.9,12.57,47.84626,-54.09684
2023-07-18 09:39:00+00:00,261.9981,18.88,12.57,47.84626,-54.09684
2023-07-18 09:49:00+00:00,267.463,18.86,12.57,47.84626,-54.09684
2023-07-18 09:59:00+00:00,273.8747,18.82,12.57,47.84626,-54.09684
2023-07-18 10:09:00+00:00,280.1964,18.7,12.57,47.84626,-54.09684
2023-07-18 10:19:00+00:00,282.6431,18.7,12.65,47.84626,-54.09684
2023-07-18 10:29:00+00:00,287.618,18.7,12.65,47.84626,-54.09684
2023-07-18 10:39:00+00:00,295.6931,18.7,12.65,47.84626,-54.09684
2023-07-18 10:49:00+00:00,301.5013,18.68,12.65,47.84626,-54.09684
2023-07-18 10:59:00+00:00,305.8264,18.6,12.65,47.84626,-54.09684
2023-07-18 11:09:00+00:00,310.6963,18.64,12.65,47.84626,-54.09684
2023-07-18 11:19:00+00:00,315.5513,18.7,12.57,47.84626,-54.09684
2023-07-18 11:29:00+00:00,318.5179,18.68,12.57,47.84626,-54.09684
2023-07-18 11:39:00+00:00,321.363,18.7,12.57,47.84626,-54.09684
2023-07-18 11:49:00+00:00,324.5997,18.77,12.57,47.84626,-54.09684
2023-07-18 11:59:00+00:00,324.0747,18.53,12.57,47.84626,-54.09684
2023-07-18 12:09:00+00:00,322.813,18.41,12.57,47.84626,-54.09684
2023-07-18 12:19:00+00:00,323.828,18.5,13.6,47.84626,-54.09684
2023-07-18 12:29:00+00:00,324.6664,18.5,13.6,47.84626,-54.09684
2023-07-18 12:39:00+00:00,323.1313,18.5,13.6,47.84626,-54.09684
2023-07-18 12:49:00+00:00,319.8796,18.55,13.6,47.84626,-54.09684
2023-07-18 12:59:00+00:00,318.318,18.58,13.6,47.84626,-54.09684
2023-07-18 13:09:00+00:00,317.9797,18.59,13.6,47.84626,-54.09684
2023-07-18 13:19:00+00:00,316.528,18.62,13.68,47.84626,-54.09684
2023-07-18 13:29:00+00:00,310.363,18.7,13.68,47.84626,-54.09684
2023-07-18 13:39:00+00:00,306.853,18.7,13.68,47.84626,-54.09684
2023-07-18 13:49:00+00:00,305.1096,18.7,13.68,47.84626,-54.09684
2023-07-18 13:59:00+00:00,299.1763,18.69,13.68,47.84626,-54.09684
2023-07-18 14:09:00+00:00,292.3781,18.7,13.68,47.84626,-54.09684
2023-07-18 14:19:00+00:00,288.5597,18.7,13.84,47.84626,-54.09684
2023-07-18 14:29:00+00:00,285.343,18.7,13.84,47.84626,-54.09684
2023-07-18 14:39:00+00:00,276.7314,18.7,13.84,47.84626,-54.09684
2023-07-18 14:49:00+00:00,269.4364,18.71,13.84,47.84626,-54.09684
2023-07-18 14:59:00+00:00,266.9181,18.77,13.84,47.84626,-54.09684
2023-07-18 15:09:00+00:00,259.8881,18.8,13.84,47.84626,-54.09684
2023-07-18 15:19:00+00:00,250.9747,18.8,13.6,47.84626,-54.09684
2023-07-18 15:29:00+00:00,246.3398,18.83,13.6,47.84626,-54.09684
2023-07-18 15:39:00+00:00,243.8548,18.86,13.6,47.84626,-54.09684
2023-07-18 15:49:00+00:00,236.6831,18.88,13.6,47.84626,-54.09684
2023-07-18 15:59:00+00:00,227.7464,18.9,13.6,47.84626,-54.09684
2023-07-18 16:09:00+00:00,223.0914,18.9,13.6,47.84626,-54.09684
2023-07-18 16:19:00+00:00,219.1031,18.9,13.68,47.84626,-54.09684
2023-07-18 16:29:00+00:00,213.5265,18.92,13.68,47.84626,-54.09684
2023-07-18 16:39:00+00:00,207.2781,18.97,13.68,47.84626,-54.09684
2023-07-18 16:49:00+00:00,201.2231,18.99,13.68,47.84626,-54.09684
2023-07-18 16:59:00+00:00,197.7847,18.99,13.68,47.84626,-54.09684
2023-07-18 17:09:00+00:00,197.7215,18.97,13.68,47.84626,-54.09684
2023-07-18 17:19:01+00:00,196.1981,18.99,13.68,47.84626,-54.09684
2023-07-18 17:29:01+00:00,193.5931,19.0,13.68,47.84626,-54.09684
2023-07-18 17:39:01+00:00,192.3881,19.0,13.68,47.84626,-54.09684
2023-07-18 17:49:01+00:00,193.1514,19.0,13.68,47.84626,-54.09684
2023-07-18 17:59:01+00:00,193.7565,19.04,13.68,47.84626,-54.09684
2023-07-18 18:09:01+00:00,193.8382,19.1,13.68,47.84626,-54.09684
2023-07-18 18:19:00+00:00,195.6931,19.13,13.6,47.84626,-54.09684
2023-07-18 18:29:00+00:00,197.4048,19.2,13.6,47.84626,-54.09684
2023-07-18 18:39:00+00:00,198.6631,19.24,13.6,47.84626,-54.09684
2023-07-18 18:49:00+00:00,202.6431,19.28,13.6,47.84626,-54.09684
2023-07-18 18:59:00+00:00,205.1148,19.28,13.6,47.84626,-54.09684
2023-07-18 19:09:00+00:00,206.4998,19.29,13.6,47.84626,-54.09684
2023-07-18 19:19:00+00:00,210.3398,19.3,13.53,47.84626,-54.09684
2023-07-18 19:29:00+00:00,214.9098,19.3,13.53,47.84626,-54.09684
2023-07-18 19:39:00+00:00,218.5364,19.29,13.53,47.84626,-54.09684
2023-07-18 19:49:00+00:00,221.4948,19.29,13.53,47.84626,-54.09684
2023-07-18 19:59:00+00:00,226.4365,19.3,13.53,47.84626,-54.09684
2023-07-18 20:09:00+00:00,231.9514,19.37,13.53,47.84626,-54.09684
2023-07-18 20:19:01+00:00,235.2981,19.38,13.37,47.84626,-54.09684
2023-07-18 20:29:01+00:00,238.6064,19.4,13.37,47.84626,-54.09684
2023-07-18 20:39:01+00:00,243.5831,19.4,13.37,47.84626,-54.09684
2023-07-18 20:49:01+00:00,249.1131,19.4,13.37,47.84626,-54.09684
2023-07-18 20:59:01+00:00,252.0931,19.4,13.37,47.84626,-54.09684
2023-07-18 21:09:01+00:00,254.8397,19.4,13.37,47.84626,-54.09684
2023-07-18 21:19:00+00:00,260.1947,19.4,13.21,47.84626,-54.09684
2023-07-18 21:29:00+00:00,266.1431,19.4,13.21,47.84626,-54.09684
2023-07-18 21:39:00+00:00,270.2597,19.4,13.21,47.84626,-54.09684
2023-07-18 21:49:00+00:00,273.478,19.4,13.21,47.84626,-54.09684
2023-07-18 21:59:00+00:00,279.888,19.4,13.21,47.84626,-54.09684
2023-07-18 22:09:00+00:00,289.038,19.4,13.21,47.84626,-54.09684
2023-07-18 22:19:00+00:00,296.933,19.4,13.05,47.84626,-54.09684
2023-07-18 22:29:00+00:00,303.77299999999997,19.4,13.05,47.84626,-54.09684
2023-07-18 22:39:00+00:00,311.4147,19.38,13.05,47.84626,-54.09684
2023-07-18 22:49:00+00:00,318.9713,19.3,13.05,47.84626,-54.09684
2023-07-18 22:59:00+00:00,325.3263,19.24,13.05,47.84626,-54.09684
2023-07-18 23:09:00+00:00,332.0779,19.2,13.05,47.84626,-54.09684
2023-07-18 23:19:00+00:00,337.8929,19.2,12.81,47.84626,-54.09684
2023-07-18 23:29:00+00:00,343.2447,19.19,12.81,47.84626,-54.09684
2023-07-18 23:39:00+00:00,348.0847,19.19,12.81,47.84626,-54.09684
2023-07-18 23:49:00+00:00,350.6013,19.2,12.81,47.84626,-54.09684
2023-07-18 23:59:00+00:00,352.218,19.2,12.81,47.84626,-54.09684
